Traverse City, MI

10:00 AM EST on January 20, 2017 (GMT -0500)
Traverse City

Weather History for KTVC - March, 2014

Change the Weather History Date:

Sunday, March 23, 2014

  Actual Average Record
Temperature  
Mean Temperature 14 °F 33 °F  
Max Temperature 21 °F 43 °F 70 °F (1938)
Min Temperature 6 °F 24 °F -4 °F (1916)
Degree Days  
Heating Degree Days 51 32  
Month to date heating degree days 1035 824  
Since 1 July heating degree days 6757 6164  
Cooling Degree Days 0 0  
Month to date cooling degree days 0 0  
Year to date cooling degree days 0 0  
Moisture  
Dew Point 5 °F    
Average Humidity 64    
Maximum Humidity 83    
Minimum Humidity 45    
Precipitation  
Precipitation T in 0.06 in 1.24 in (1938)
Month to date precipitation 0.30 1.32  
Year to date precipitation 1.72 5.64  
Snow  
Snow 0.00 in - - ()
Snow Depth 6.00 in    
Sea Level Pressure  
Sea Level Pressure 30.38 in    
Wind  
Wind Speed 4 mph (NNW)    
Max Wind Speed 15 mph    
Max Gust Speed 19 mph    
Visibility 8 miles    
Events Snow    
T = Trace of Precipitation, MM = Missing Value Source: NWS Daily Summary

Daily Weather History Graph

Daily Weather History Graph

Search for Another Location

Airport or City:

Trip Planner

Search our weather history database for the weather conditions in past years. The results will help you decide how hot, cold, wet, or windy it might be!

Date:

Astronomy

Mar. 23, 2014 Rise Set
Actual Time 7:39 AM EDT 7:58 PM EDT
Civil Twilight 7:10 AM EDT 8:27 PM EDT
Nautical Twilight 6:36 AM EDT 9:02 PM EDT
Astronomical Twilight 6:00 AM EDT 9:37 PM EDT
Moon 2:26 AM EDT (3/23) 12:08 PM EDT (3/23)
Length of Visible Light 13h 17m
Length of Day
12h 18m
Waning Gibbous, 55% of the Moon is Illuminated
Mar 23
Waning Gibbous
Mar 23
Last Quarter
Mar 30
New
Apr 7
First Quarter
Apr 15
Full

Hourly Weather History & Observations

Time (EDT) Temp. Windchill Dew Point Humidity Pressure Visibility Wind Dir Wind Speed Gust Speed Precip Events Conditions
12:53 AM 12.0 °F 2.7 °F 3.9 °F 70% 30.38 in 10.0 mi NNE 5.8 mph - N/A   Overcast
1:01 AM 12.0 °F 2.7 °F 3.9 °F 70% 30.34 in 10.0 mi NNE 5.8 mph - N/A   Overcast
1:53 AM 12.0 °F - 5.0 °F 73% 30.38 in 10.0 mi Calm Calm - 0.00 in   Overcast
2:53 AM 12.0 °F - 6.1 °F 77% 30.38 in 10.0 mi Calm Calm - N/A   Overcast
3:49 AM 10.4 °F - 6.8 °F 85% 30.34 in 6.0 mi Calm Calm - N/A   Overcast
3:53 AM 10.9 °F - 6.1 °F 81% 30.38 in 5.0 mi Calm Calm - N/A   Haze
4:34 AM 10.9 °F - 7.0 °F 84% 30.34 in 1.8 mi Calm Calm - 0.00 in Snow Light Snow
4:53 AM 10.9 °F - 7.0 °F 84% 30.38 in 2.0 mi Calm Calm - 0.00 in Snow Light Snow
4:57 AM 10.0 °F - 6.1 °F 84% 30.34 in 2.0 mi Calm Calm - 0.00 in Snow Light Snow
5:05 AM 10.0 °F - 6.1 °F 84% 30.34 in 3.0 mi Calm Calm - 0.00 in Snow Light Snow
5:38 AM 8.1 °F - 5.0 °F 87% 30.34 in 10.0 mi Calm Calm - 0.00 in   Scattered Clouds
5:53 AM 8.1 °F - 3.0 °F 80% 30.38 in 3.0 mi Calm Calm - 0.00 in Snow Light Snow
6:17 AM 9.0 °F - 5.0 °F 84% 30.34 in 8.0 mi Calm Calm - 0.00 in   Mostly Cloudy
6:53 AM 7.0 °F - 1.9 °F 80% 30.39 in 10.0 mi Calm Calm - 0.00 in   Partly Cloudy
7:53 AM 7.0 °F - 1.9 °F 80% 30.41 in 10.0 mi Calm Calm - N/A   Mostly Cloudy
8:53 AM 10.0 °F 0.4 °F 5.0 °F 80% 30.41 in 10.0 mi West 5.8 mph - N/A   Mostly Cloudy
9:53 AM 15.1 °F 5.2 °F 8.1 °F 74% 30.41 in 10.0 mi NW 6.9 mph - N/A   Scattered Clouds
10:53 AM 17.1 °F 6.6 °F 7.0 °F 65% 30.42 in 10.0 mi WNW 8.1 mph - N/A   Mostly Cloudy
11:00 AM 16.0 °F 6.3 °F 7.0 °F 68% 30.37 in 10.0 mi North 6.9 mph - N/A   Mostly Cloudy
11:49 AM 17.6 °F 7.3 °F 6.8 °F 63% 30.38 in 4.0 mi NNW 8.1 mph - 0.00 in Snow Light Snow
11:53 AM 17.1 °F 5.8 °F 9.0 °F 71% 30.42 in 4.0 mi NNW 9.2 mph - 0.00 in Snow Light Snow
12:50 PM 17.6 °F 8.2 °F 10.4 °F 73% 30.37 in 3.0 mi NNW 6.9 mph - 0.00 in Snow Light Snow
12:53 PM 17.1 °F 8.7 °F 9.0 °F 71% 30.41 in 3.0 mi NNW 5.8 mph - 0.00 in Snow Light Snow
1:53 PM 19.0 °F 10.0 °F 3.0 °F 50% 30.40 in 10.0 mi NNW 6.9 mph - 0.00 in   Overcast
2:00 PM 19.0 °F 9.0 °F 3.0 °F 50% 30.36 in 10.0 mi NNE 8.1 mph - N/A   Overcast
2:53 PM 19.9 °F 10.1 °F 3.0 °F 48% 30.38 in 10.0 mi NNW 8.1 mph - N/A   Overcast
3:53 PM 19.9 °F 7.3 °F 3.9 °F 50% 30.38 in 10.0 mi WNW 12.7 mph - N/A   Overcast
4:53 PM 19.0 °F 8.2 °F 5.0 °F 54% 30.37 in 10.0 mi NW 9.2 mph - N/A   Overcast
5:53 PM 19.0 °F 7.5 °F 5.0 °F 54% 30.37 in 10.0 mi WNW 10.4 mph - N/A   Mostly Cloudy
6:53 PM 19.0 °F 6.1 °F 1.0 °F 46% 30.37 in 10.0 mi West 12.7 mph - N/A   Scattered Clouds
7:53 PM 18.0 °F 12.7 °F -0.0 °F 45% 30.37 in 10.0 mi NNE 3.5 mph - N/A   Partly Cloudy
8:53 PM 15.1 °F - 1.0 °F 54% 30.38 in 10.0 mi Calm Calm - N/A   Clear
9:53 PM 12.0 °F - 3.0 °F 67% 30.38 in 10.0 mi Calm Calm - N/A   Clear
10:53 PM 9.0 °F - 1.9 °F 73% 30.38 in 10.0 mi Calm Calm - N/A   Clear
11:53 PM 8.1 °F - 1.0 °F 73% 30.37 in 10.0 mi Calm Calm - N/A   Scattered Clouds